[Iaude] MPEC J120: 2022 JN11 [a=1.33,e=0.30,i=1.6,H=29.4]

mpec at cfa.harvard.edu mpec at cfa.harvard.edu
Tue May 7 13:08:40 EDT 2024


M.P.E.C. 2024-J120                                  Issued 2024 May 7, 17:06 UT

     The Minor Planet Electronic Circulars contain information on unusual
         minor planets, routine data on comets and natural satellites,
         and occasional editorial announcements.  They are published
    on behalf of Division F of the International Astronomical Union by the
          Minor Planet Center, Smithsonian Astrophysical Observatory,
                          Cambridge, MA 02138, U.S.A.
			  
             Prepared using the Tamkin Foundation Computer Network

                              MPC at CFA.HARVARD.EDU
            URL https://www.minorplanetcenter.net/    ISSN 1523-6714

                                   2022 JN11                                    


Observations:
     K22J11N* C2022 05 05.57572911 57 09.44 +12 08 19.2          16.5 GXEJ120381
     K22J11N  C2022 05 05.57578711 57 10.78 +12 08 03.7          17.4 GXEJ120381
     K22J11N  C2022 05 05.60299812 07 13.41 +10 17 43.4          17.4 GXEJ120381
     K22J11N  C2022 05 05.60306712 07 14.90 +10 17 26.8          17.0 GXEJ120381
     K22J11N  C2022 05 05.60347212 07 23.80 +10 15 48.0          18.0 GXEJ120381
     K22J11N  C2022 05 05.60355312 07 25.55 +10 15 28.9          16.7 GXEJ120381
     K22J11N  C2022 05 05.60417812 07 39.17 +10 12 57.5          16.6 GXEJ120381
     K22J11N  C2022 05 05.60427112 07 41.20 +10 12 34.8          17.2 GXEJ120381
     K22J11N  C2022 05 05.60442112 07 44.39 +10 11 59.7          17.0 GXEJ120381
     K22J11N  C2022 05 05.60451412 07 46.15 +10 11 39.9          17.7 GXEJ120381
     K22J11N  C2022 05 05.60490712 07 54.78 +10 10 03.8          17.3 GXEJ120381
     K22J11N  C2022 05 05.60497712 07 56.44 +10 09 45.9          17.5 GXEJ120381
     K22J11N  C2022 05 05.60562512 08 10.39 +10 07 11.2          17.1 GXEJ120381
     K22J11N  C2022 05 05.60567112 08 11.39 +10 06 59.3          16.8 GXEJ120381
     K22J11N  C2022 05 05.62321812 14 27.64 +08 56 59.4          17.5 GXEJ120381
     K22J11N  C2022 05 05.62329912 14 29.25 +08 56 41.7          16.8 GXEJ120381
     K22J11N  C2022 05 05.62439812 14 52.69 +08 52 19.8          17.1 GXEJ120381
     K22J11N  C2022 05 05.62449112 14 54.74 +08 51 57.0          17.0 GXEJ120381
     K22J11N  C2022 05 05.62464112 14 57.87 +08 51 21.6          16.9 GXEJ120381
     K22J11N  C2022 05 05.62472212 14 59.70 +08 51 00.6          17.8 GXEJ120381
     K22J11N  C2022 05 05.62535912 15 13.03 +08 48 31.3          17.9 GXEJ120381
     K22J11N  C2022 05 05.62540512 15 14.10 +08 48 19.5          18.0 GXEJ120381
     K22J11N  C2022 05 05.62584512 15 23.54 +08 46 33.7          16.9 GXEJ120381
     K22J11N  C2022 05 05.62592612 15 25.16 +08 46 16.8          17.0 GXEJ120381
     K22J11N KC2022 05 07.82936 15 52 50.80 -25 51 07.6                VEJ120221
     K22J11N KC2022 05 07.84182 15 53 02.08 -25 53 10.8                VEJ120221

Observer details:
221 IAS Observatory, Hakos.  Observer D. Husar.  0.20-m f/2.8 reflector + CCD.
381 Tokyo-Kiso.  Observer S. Wada.  1.05-m f/3.1 Schmidt + CCD.

Orbital elements:
2022 JN11                                                Earth MOID = 0.0005 AU
Epoch 2024 Mar. 31.0 TT = JDT 2460400.5                 Veres                   
M 111.88150              (2000.0)            P               Q                  
n   0.64192811     Peri.  132.53391     -0.99914887     -0.03585617             
a   1.3308991      Node    45.42256     +0.02412998     -0.90902131             
e   0.2955882      Incl.    1.64060     +0.03345579     -0.41520429             
P   1.54           H   29.40          G   0.15           U   8                  
Residuals in seconds of arc
220505 381  0.3-  0.7+    220505 381  3.0-  2.2+    220505 381  0.4-  0.3+
220505 381  0.2+  0.6-    220505 381  1.6-  0.9+    220505 381  1.3+  1.4-
220505 381  0.3+  0.1-    220505 381  0.4+  0.1-    220505 381  0.7-  0.3+
220505 381  0.1+  0.0     220505 381  1.2-  1.4+    220505 381  0.7+  0.6-
220505 381  1.5+  1.1-    220505 381  1.2-  0.5+    220505 381  2.8+  2.1-
220505 381  1.3+  0.6-    220505 381  1.8-  0.3+    220505 381  1.5+  0.2+
220505 381  1.7+  1.2-    220505 381  3.4-  1.9+    220507 221  0.3+  1.8-
220505 381  1.9+  1.5-    220505 381  1.0-  0.9+    220507 221  0.3-  1.8+
220505 381  0.8+  0.4-    220505 381  0.2+  0.1+

Ephemeris:
2022 JN11                a,e,i = 1.33, 0.30, 2                   q = 0.9375
Date    TT    R. A. (2000) Decl.     Delta      r    Elong.  Phase     V
2024 04 07    22 53 04.5 -08 20 36   2.2778  1.5808    36.0    21.8    33.2
...
2024 04 22    23 26 13.6 -04 55 15   2.2263  1.6207    41.7    24.4    33.3
...
2024 04 30    23 43 11.8 -03 07 10   2.1904  1.6394    44.9    25.7    33.4
...
2024 05 06    23 55 38.6 -01 47 14   2.1597  1.6522    47.4    26.7    33.4
2024 05 07    23 57 41.8 -01 34 01   2.1543  1.6542    47.8    26.8    33.4
2024 05 08    23 59 44.6 -01 20 51   2.1487  1.6562    48.2    27.0    33.4
...
2024 05 14    00 11 53.6 -00 02 38   2.1137  1.6677    50.7    28.0    33.4
...
2024 05 22    00 27 46.5 +01 39 12   2.0624  1.6813    54.0    29.2    33.4
...
2024 06 06    00 56 40.2 +04 41 18   1.9521  1.7018    60.6    31.3    33.3

M. P. C. Staff               (C) Copyright 2024 MPC           M.P.E.C. 2024-J120





More information about the Iaude mailing list